Weather History for Valdosta, GA

Change the Weather History Date:

Thursday, March 21, 2013

  Actual Average Record
Temperature  
Mean Temperature 52 °F -  
Max Temperature 63 °F 72 °F 83 °F (2011)
Min Temperature 41 °F 50 °F 41 °F (2001)
Degree Days  
Heating Degree Days 12    
Growing Degree Days 2 (Base 50)    
Moisture  
Dew Point 27 °F    
Average Humidity 42    
Maximum Humidity 69    
Minimum Humidity 19    
Precipitation  
Precipitation 0.00 in - - ()
Sea Level Pressure  
Sea Level Pressure 29.94 in    
Wind  
Wind Speed 8 mph (NW)    
Max Wind Speed 15 mph    
Max Gust Speed 24 mph    
Visibility 10 miles    
Events Rain    
Averages and records for this station are not official NWS values.
T = Trace of Precipitation, MM = Missing Value Source: NWS Daily Summary

Daily Weather History Graph

Daily Weather History Graph

Search for Another Location

Airport:

Trip Planner

Search our weather history database for the weather conditions in past years. The results will help you decide how hot, cold, wet, or windy it might be!

Date:

Astronomy

Mar. 21, 2013 Rise Set
Actual Time 7:35 AM EDT 7:45 PM EDT
Civil Twilight 7:10 AM EDT 8:09 PM EDT
Nautical Twilight 6:42 AM EDT 8:37 PM EDT
Astronomical Twilight 6:14 AM EDT 9:05 PM EDT
Moon 2:32 PM EDT (3/21) 3:36 AM EDT (3/21)
Length of Visible Light 12h 58m
Length of Day
12h 10m
Waxing Gibbous, 68% of the Moon is Illuminated
Mar 21
Waxing Gibbous
Mar 27
Full
Apr 3
Last Quarter
Apr 10
New
Apr 18
First Quarter

Hourly Weather History & Observations

Time (EDT) Temp. Windchill Dew Point Humidity Pressure Visibility Wind Dir Wind Speed Gust Speed Precip Events Conditions
12:58 AM 49.1 °F - 33.8 °F 56% 29.94 in 10.0 mi WNW 8.1 mph - N/A   Clear
1:58 AM 48.4 °F - 32.4 °F 54% 29.93 in 10.0 mi West 4.6 mph - N/A   Clear
2:58 AM 44.8 °F 40.4 °F 32.7 °F 63% 29.92 in 10.0 mi WNW 8.1 mph - N/A   Clear
3:58 AM 45.7 °F 41.0 °F 31.5 °F 58% 29.92 in 10.0 mi NW 9.2 mph - N/A   Clear
4:58 AM 44.2 °F 39.2 °F 31.3 °F 60% 29.93 in 10.0 mi NW 9.2 mph - N/A   Clear
5:54 AM 42.8 °F 38.0 °F 32.0 °F 66% 29.93 in 10.0 mi NW 8.1 mph - N/A   Clear
6:58 AM 41.5 °F 37.8 °F 30.9 °F 66% 29.96 in 10.0 mi NW 5.8 mph - N/A   Clear
7:58 AM 41.9 °F 38.2 °F 31.3 °F 66% 29.97 in 10.0 mi NW 5.8 mph - N/A   Clear
8:58 AM 45.7 °F 42.7 °F 31.5 °F 58% 29.98 in 10.0 mi NW 5.8 mph - N/A   Clear
9:54 AM 50.0 °F - 28.4 °F 43% 29.99 in 10.0 mi NW 11.5 mph - N/A   Partly Cloudy
10:54 AM 51.8 °F - 26.6 °F 38% 29.99 in 10.0 mi NNW 13.8 mph - N/A   Mostly Cloudy
11:54 AM 55.4 °F - 23.0 °F 29% 29.98 in 10.0 mi WNW 12.7 mph 18.4 mph N/A   Clear
12:53 PM 57.2 °F - 23.0 °F 27% 29.98 in 10.0 mi WNW 8.1 mph 16.1 mph N/A Rain Light Rain
12:54 PM 57.2 °F - 24.8 °F 29% 29.98 in 10.0 mi WNW 9.2 mph 16.1 mph N/A Rain Light Rain
1:03 PM 57.2 °F - 23.0 °F 27% 29.98 in 10.0 mi Variable 6.9 mph 18.4 mph N/A   Scattered Clouds
1:54 PM 60.8 °F - 24.8 °F 25% 29.95 in 10.0 mi NW 11.5 mph 23.0 mph N/A   Mostly Cloudy
2:54 PM 60.8 °F - 23.0 °F 23% 29.92 in 10.0 mi NW 10.4 mph 24.2 mph N/A   Partly Cloudy
3:54 PM 62.6 °F - 21.2 °F 20% 29.90 in 10.0 mi WNW 15.0 mph - N/A   Clear
4:54 PM 64.4 °F - 21.2 °F 19% 29.89 in 10.0 mi WNW 11.5 mph 17.3 mph N/A   Clear
5:58 PM 62.6 °F - 21.0 °F 20% 29.91 in 10.0 mi WNW 10.4 mph - N/A   Clear
6:58 PM 60.8 °F - 21.2 °F 22% 29.91 in 10.0 mi WNW 6.9 mph - N/A   Clear
7:58 PM 57.2 °F - 22.6 °F 26% 29.92 in 10.0 mi West 3.5 mph - N/A   Clear
8:58 PM 55.0 °F - 25.5 °F 32% 29.93 in 10.0 mi ESE 1.2 mph - N/A   Clear
9:58 PM 47.1 °F - 30.6 °F 53% 29.93 in 10.0 mi Calm Calm - N/A   Clear
10:58 PM 46.9 °F - 30.4 °F 53% 29.94 in 10.0 mi Calm Calm - N/A   Scattered Clouds
11:58 PM 45.9 °F - 36.1 °F 69% 29.95 in 10.0 mi Calm Calm - N/A   Overcast